Starlink 32486

operational
NORAD ID: 61854 Int'l Des: 2024-202 Owner: SPXS Country: US Constellation: starlink
LEOCIRCULAR

关于 Starlink 32486

正在加载描述...

实时位置

正在加载3D地球...

即将过境

高度历史

Altitude vs Time

uPlot chart will show altitude changes over time

两行轨道根数

1 61854U 24202K 26036.21488384 .00001649 00000-0 69438-4 0 9993
2 61854 42.9966 61.1587 0001439 292.0829 67.9870 15.27577022 70371
Epoch: Feb 5, 2026 • Age: 8 hours

当前状态

高度 484.0 km
速度 7.63 km/s
星下点 30.05°N, 123.53°E
发射日期 Nov 7, 2024
运行时间 1.2 years
类型 internet

技术详情

分类 Payload
质量 730.00 kg
干质量 700.00 kg
总质量 730.00 kg
长度 0.30 m
直径 4.10 m
跨度 29.00 m
形状 Box + pan
制造商 SPXS
平台类型 Starlink V2M
阶段状态 In Orbit
所有者/国家 SPXS/US

大型星座

Loading constellations...